Time,TemperatureF,DewpointF,PressureIn,WindDirection,WindDirectionDegrees,WindSpeedMPH,WindSpeedGustMPH,Humidity,HourlyPrecipIn,Conditions,Clouds,dailyrainin,SoftwareType,DateUTC
2013-05-05 00:01:00,57.9,43.7,30.00,NE,38,0.0,1.0,59,0.00,,---,0.00,VWS V14.00,2013-05-05 04:01:00,
2013-05-05 00:03:00,57.8,43.6,30.00,NE,37,0.0,1.0,59,0.00,,---,0.00,VWS V14.00,2013-05-05 04:03:00,
2013-05-05 00:06:00,57.8,43.6,30.00,ENE,77,0.0,2.0,59,0.00,,---,0.00,VWS V14.00,2013-05-05 04:06:00,
2013-05-05 00:11:00,57.6,43.8,30.00,East,80,0.0,3.0,60,0.00,,---,0.00,VWS V14.00,2013-05-05 04:11:00,
2013-05-05 00:16:00,57.5,43.7,30.00,East,80,0.0,3.0,60,0.00,,---,0.00,VWS V14.00,2013-05-05 04:16:00,
2013-05-05 00:21:00,57.3,43.5,30.00,ENE,74,2.0,4.0,60,0.00,,---,0.00,VWS V14.00,2013-05-05 04:21:00,
2013-05-05 00:26:00,57.2,43.5,30.00,East,84,1.0,4.0,60,0.00,,---,0.00,VWS V14.00,2013-05-05 04:26:00,
2013-05-05 00:31:00,57.1,43.8,30.00,East,84,0.0,1.0,61,0.00,,---,0.00,VWS V14.00,2013-05-05 04:31:00,
2013-05-05 00:36:00,57.1,43.8,30.00,East,87,0.0,2.0,61,0.00,,---,0.00,VWS V14.00,2013-05-05 04:36:00,
2013-05-05 00:41:00,57.0,43.7,30.00,East,86,0.0,2.0,61,0.00,,---,0.00,VWS V14.00,2013-05-05 04:41:00,
2013-05-05 00:46:00,56.9,43.6,30.00,East,86,0.0,2.0,61,0.00,,---,0.00,VWS V14.00,2013-05-05 04:46:00,
2013-05-05 00:51:00,56.8,43.9,30.00,East,87,2.0,2.0,62,0.00,,---,0.00,VWS V14.00,2013-05-05 04:51:00,
2013-05-05 00:56:00,56.7,43.8,30.00,ENE,72,1.0,3.0,62,0.00,,---,0.00,VWS V14.00,2013-05-05 04:56:00,
2013-05-05 01:01:00,56.6,43.8,30.00,ENE,72,0.0,3.0,62,0.00,,---,0.00,VWS V14.00,2013-05-05 05:01:00,
2013-05-05 01:06:00,56.4,43.6,30.00,ENE,76,0.0,3.0,62,0.00,,---,0.00,VWS V14.00,2013-05-05 05:06:00,
2013-05-05 01:11:00,56.3,43.9,30.00,ENE,76,0.0,3.0,63,0.00,,---,0.00,VWS V14.00,2013-05-05 05:11:00,
2013-05-05 01:16:00,56.2,43.8,30.00,ENE,76,0.0,3.0,63,0.00,,---,0.00,VWS V14.00,2013-05-05 05:16:00,
2013-05-05 01:22:00,56.0,44.0,30.00,ENE,68,0.0,3.0,64,0.00,,---,0.00,VWS V14.00,2013-05-05 05:22:00,
2013-05-05 01:27:00,55.9,43.9,30.00,ENE,68,0.0,3.0,64,0.00,,---,0.00,VWS V14.00,2013-05-05 05:27:00,
2013-05-05 01:32:00,55.8,44.2,30.00,ENE,61,0.0,1.0,65,0.00,,---,0.00,VWS V14.00,2013-05-05 05:32:00,
2013-05-05 01:37:00,55.6,44.0,30.00,ENE,61,0.0,1.0,65,0.00,,---,0.00,VWS V14.00,2013-05-05 05:37:00,
2013-05-05 01:42:00,55.4,43.8,30.00,ENE,63,0.0,2.0,65,0.00,,---,0.00,VWS V14.00,2013-05-05 05:42:00,
2013-05-05 01:47:00,55.3,44.2,30.00,ENE,63,0.0,2.0,66,0.00,,---,0.00,VWS V14.00,2013-05-05 05:47:00,
2013-05-05 01:52:00,55.1,44.0,30.00,ENE,76,0.0,3.0,66,0.00,,---,0.00,VWS V14.00,2013-05-05 05:52:00,
2013-05-05 01:57:00,55.0,43.9,29.99,ENE,75,0.0,4.0,66,0.00,,---,0.00,VWS V14.00,2013-05-05 05:57:00,
2013-05-05 02:02:00,54.9,44.2,29.99,ENE,77,0.0,3.0,67,0.00,,---,0.00,VWS V14.00,2013-05-05 06:02:00,
2013-05-05 02:07:00,54.8,44.1,29.99,East,99,0.0,3.0,67,0.00,,---,0.00,VWS V14.00,2013-05-05 06:07:00,
2013-05-05 02:12:00,54.8,44.1,29.99,ENE,57,1.0,4.0,67,0.00,,---,0.00,VWS V14.00,2013-05-05 06:12:00,
2013-05-05 02:17:00,54.7,44.0,29.99,ENE,66,0.0,4.0,67,0.00,,---,0.00,VWS V14.00,2013-05-05 06:17:00,
2013-05-05 02:22:00,54.7,44.0,29.99,ENE,74,0.0,4.0,67,0.00,,---,0.00,VWS V14.00,2013-05-05 06:22:00,
2013-05-05 02:27:00,54.7,44.0,29.98,ENE,74,0.0,4.0,67,0.00,,---,0.00,VWS V14.00,2013-05-05 06:27:00,
2013-05-05 02:32:00,54.7,44.0,29.98,East,86,2.0,3.0,67,0.00,,---,0.00,VWS V14.00,2013-05-05 06:32:00,
2013-05-05 02:37:00,54.7,44.0,29.98,ESE,120,0.0,3.0,67,0.00,,---,0.00,VWS V14.00,2013-05-05 06:37:00,
2013-05-05 02:42:00,54.7,44.0,29.98,ESE,120,0.0,3.0,67,0.00,,---,0.00,VWS V14.00,2013-05-05 06:42:00,
2013-05-05 02:47:00,54.7,44.0,29.98,East,98,0.0,4.0,67,0.00,,---,0.00,VWS V14.00,2013-05-05 06:47:00,
2013-05-05 02:52:00,54.7,44.0,29.98,East,82,0.0,4.0,67,0.00,,---,0.00,VWS V14.00,2013-05-05 06:52:00,
2013-05-05 02:57:00,54.7,44.0,29.98,East,84,0.0,4.0,67,0.00,,---,0.00,VWS V14.00,2013-05-05 06:57:00,
2013-05-05 03:02:00,54.7,43.6,29.98,ENE,69,1.0,5.0,66,0.00,,---,0.00,VWS V14.00,2013-05-05 07:02:00,
2013-05-05 03:07:00,54.7,44.0,29.98,ENE,68,1.0,5.0,67,0.00,,---,0.00,VWS V14.00,2013-05-05 07:07:00,
2013-05-05 03:12:00,54.7,43.6,29.98,ENE,74,0.0,5.0,66,0.00,,---,0.00,VWS V14.00,2013-05-05 07:12:00,
2013-05-05 03:17:00,54.6,43.9,29.98,East,79,3.0,5.0,67,0.00,,---,0.00,VWS V14.00,2013-05-05 07:17:00,
2013-05-05 03:23:00,54.6,43.9,29.98,East,79,0.0,5.0,67,0.00,,---,0.00,VWS V14.00,2013-05-05 07:23:00,
2013-05-05 03:28:00,54.5,43.8,29.98,NE,51,0.0,5.0,67,0.00,,---,0.00,VWS V14.00,2013-05-05 07:28:00,
2013-05-05 03:33:00,54.4,43.7,29.98,ENE,63,2.0,3.0,67,0.00,,---,0.00,VWS V14.00,2013-05-05 07:33:00,
2013-05-05 03:38:00,54.4,43.7,29.98,ENE,67,0.0,3.0,67,0.00,,---,0.00,VWS V14.00,2013-05-05 07:38:00,
2013-05-05 03:43:00,54.3,43.6,29.98,ENE,69,0.0,3.0,67,0.00,,---,0.00,VWS V14.00,2013-05-05 07:43:00,
2013-05-05 03:48:00,54.2,43.5,29.98,East,79,0.0,3.0,67,0.00,,---,0.00,VWS V14.00,2013-05-05 07:48:00,
2013-05-05 03:53:00,54.1,43.4,29.98,East,80,2.0,3.0,67,0.00,,---,0.00,VWS V14.00,2013-05-05 07:53:00,
2013-05-05 03:58:00,54.1,43.8,29.97,ENE,71,0.0,3.0,68,0.00,,---,0.00,VWS V14.00,2013-05-05 07:58:00,
2013-05-05 04:03:00,54.0,43.7,29.97,ENE,73,0.0,4.0,68,0.00,,---,0.00,VWS V14.00,2013-05-05 08:03:00,
2013-05-05 04:08:00,53.9,43.6,29.97,ENE,73,1.0,4.0,68,0.00,,---,0.00,VWS V14.00,2013-05-05 08:08:00,
2013-05-05 04:13:00,53.8,43.9,29.97,ENE,73,0.0,4.0,69,0.00,,---,0.00,VWS V14.00,2013-05-05 08:13:00,
2013-05-05 04:18:00,53.7,43.8,29.97,ENE,75,0.0,4.0,69,0.00,,---,0.00,VWS V14.00,2013-05-05 08:18:00,
2013-05-05 04:23:00,53.6,43.7,29.97,ENE,75,0.0,4.0,69,0.00,,---,0.00,VWS V14.00,2013-05-05 08:23:00,
2013-05-05 04:28:00,53.5,43.6,29.98,ENE,75,0.0,4.0,69,0.00,,---,0.00,VWS V14.00,2013-05-05 08:28:00,
2013-05-05 04:33:00,53.4,43.9,29.98,ENE,75,0.0,2.0,70,0.00,,---,0.00,VWS V14.00,2013-05-05 08:33:00,
2013-05-05 04:38:00,53.3,43.8,29.97,ENE,75,0.0,3.0,70,0.00,,---,0.00,VWS V14.00,2013-05-05 08:38:00,
2013-05-05 04:43:00,53.3,43.8,29.97,ENE,68,0.0,3.0,70,0.00,,---,0.00,VWS V14.00,2013-05-05 08:43:00,
2013-05-05 04:48:00,53.2,43.7,29.97,East,81,0.0,3.0,70,0.00,,---,0.00,VWS V14.00,2013-05-05 08:48:00,
2013-05-05 04:53:00,53.2,43.7,29.98,East,81,1.0,3.0,70,0.00,,---,0.00,VWS V14.00,2013-05-05 08:53:00,
2013-05-05 04:58:00,53.1,44.0,29.97,East,81,0.0,3.0,71,0.00,,---,0.00,VWS V14.00,2013-05-05 08:58:00,
2013-05-05 05:03:00,53.0,43.9,29.98,ENE,78,0.0,1.0,71,0.00,,---,0.00,VWS V14.00,2013-05-05 09:03:00,
2013-05-05 05:08:00,53.0,43.9,29.98,East,79,1.0,1.0,71,0.00,,---,0.00,VWS V14.00,2013-05-05 09:08:00,
2013-05-05 05:13:00,53.0,43.9,29.98,ENE,78,0.0,2.0,71,0.00,,---,0.00,VWS V14.00,2013-05-05 09:13:00,
2013-05-05 05:19:00,52.9,43.8,29.98,East,82,2.0,2.0,71,0.00,,---,0.00,VWS V14.00,2013-05-05 09:19:00,
2013-05-05 05:24:00,52.9,44.1,29.98,East,82,0.0,3.0,72,0.00,,---,0.00,VWS V14.00,2013-05-05 09:24:00,
2013-05-05 05:29:00,52.8,44.0,29.98,East,82,1.0,3.0,72,0.00,,---,0.00,VWS V14.00,2013-05-05 09:29:00,
2013-05-05 05:34:00,52.7,43.9,29.98,East,82,0.0,1.0,72,0.00,,---,0.00,VWS V14.00,2013-05-05 09:34:00,
2013-05-05 05:39:00,52.6,43.8,29.98,East,82,0.0,2.0,72,0.00,,---,0.00,VWS V14.00,2013-05-05 09:39:00,
2013-05-05 05:44:00,52.5,43.8,29.98,East,82,0.0,2.0,72,0.00,,---,0.00,VWS V14.00,2013-05-05 09:44:00,
2013-05-05 05:49:00,52.4,44.0,29.98,East,82,0.0,2.0,73,0.00,,---,0.00,VWS V14.00,2013-05-05 09:49:00,
2013-05-05 05:54:00,52.4,44.0,29.98,East,82,1.0,3.0,73,0.00,,---,0.00,VWS V14.00,2013-05-05 09:54:00,
2013-05-05 05:59:00,52.3,43.9,29.98,East,82,0.0,3.0,73,0.00,,---,0.00,VWS V14.00,2013-05-05 09:59:00,
2013-05-05 06:04:00,52.3,43.9,29.98,East,82,0.0,2.0,73,0.00,,---,0.00,VWS V14.00,2013-05-05 10:04:00,
2013-05-05 06:09:00,52.2,44.2,29.98,East,82,0.0,2.0,74,0.00,,---,0.00,VWS V14.00,2013-05-05 10:09:00,
2013-05-05 06:14:00,52.1,44.1,29.98,East,82,1.0,2.0,74,0.00,,---,0.00,VWS V14.00,2013-05-05 10:14:00,
2013-05-05 06:19:00,52.1,44.1,29.98,East,82,0.0,3.0,74,0.00,,---,0.00,VWS V14.00,2013-05-05 10:19:00,
2013-05-05 06:24:00,52.0,44.0,29.98,East,82,0.0,3.0,74,0.00,,---,0.00,VWS V14.00,2013-05-05 10:24:00,
2013-05-05 06:29:00,52.0,44.0,29.99,East,82,0.0,3.0,74,0.00,,---,0.00,VWS V14.00,2013-05-05 10:29:00,
2013-05-05 06:34:00,51.9,43.9,29.99,East,82,2.0,2.0,74,0.00,,---,0.00,VWS V14.00,2013-05-05 10:34:00,
2013-05-05 06:39:00,51.9,44.2,29.98,East,82,0.0,2.0,75,0.00,,---,0.00,VWS V14.00,2013-05-05 10:39:00,
2013-05-05 06:44:00,51.8,44.1,29.98,East,82,2.0,2.0,75,0.00,,---,0.00,VWS V14.00,2013-05-05 10:44:00,
2013-05-05 06:49:00,51.7,44.0,29.99,East,82,0.0,2.0,75,0.00,,---,0.00,VWS V14.00,2013-05-05 10:49:00,
2013-05-05 06:54:00,51.7,44.0,29.98,East,82,0.0,2.0,75,0.00,,---,0.00,VWS V14.00,2013-05-05 10:54:00,
2013-05-05 06:59:00,51.6,44.0,29.99,ESE,103,0.0,2.0,75,0.00,,---,0.00,VWS V14.00,2013-05-05 10:59:00,
2013-05-05 07:04:00,51.6,44.3,29.99,East,98,0.0,4.0,76,0.00,,---,0.00,VWS V14.00,2013-05-05 11:04:00,
2013-05-05 07:09:00,51.6,44.3,29.99,East,96,0.0,4.0,76,0.00,,---,0.00,VWS V14.00,2013-05-05 11:09:00,
2013-05-05 07:14:00,51.6,44.3,29.99,East,96,0.0,4.0,76,0.00,,---,0.00,VWS V14.00,2013-05-05 11:14:00,
2013-05-05 07:19:00,51.7,44.4,30.00,East,93,0.0,4.0,76,0.00,,---,0.00,VWS V14.00,2013-05-05 11:19:00,
2013-05-05 07:25:00,51.8,44.5,30.00,East,79,0.0,4.0,76,0.00,,---,0.00,VWS V14.00,2013-05-05 11:25:00,
2013-05-05 07:30:00,51.9,44.6,30.00,East,79,0.0,4.0,76,0.00,,---,0.00,VWS V14.00,2013-05-05 11:30:00,
2013-05-05 07:35:00,52.1,44.8,30.00,East,80,0.0,2.0,76,0.00,,---,0.00,VWS V14.00,2013-05-05 11:35:00,
2013-05-05 07:40:00,52.3,44.6,30.00,NE,56,1.0,3.0,75,0.00,,---,0.00,VWS V14.00,2013-05-05 11:40:00,
2013-05-05 07:45:00,52.7,45.0,30.00,East,82,1.0,4.0,75,0.00,,---,0.00,VWS V14.00,2013-05-05 11:45:00,
2013-05-05 07:50:00,53.0,45.0,30.01,East,80,1.0,4.0,74,0.00,,---,0.00,VWS V14.00,2013-05-05 11:50:00,
2013-05-05 07:55:00,53.3,45.2,30.01,ENE,78,2.0,4.0,74,0.00,,---,0.00,VWS V14.00,2013-05-05 11:55:00,
2013-05-05 08:00:00,53.6,45.5,30.01,East,88,1.0,2.0,74,0.00,,---,0.00,VWS V14.00,2013-05-05 12:00:00,
2013-05-05 08:05:00,53.9,45.8,30.01,ENE,61,0.0,2.0,74,0.00,,---,0.00,VWS V14.00,2013-05-05 12:05:00,
2013-05-05 08:10:00,54.2,45.8,30.01,ENE,69,2.0,4.0,73,0.00,,---,0.00,VWS V14.00,2013-05-05 12:10:00,
2013-05-05 08:15:00,54.5,46.4,30.01,ESE,103,0.0,4.0,74,0.00,,---,0.00,VWS V14.00,2013-05-05 12:15:00,
2013-05-05 08:20:00,54.7,46.2,30.01,East,83,0.0,4.0,73,0.00,,---,0.00,VWS V14.00,2013-05-05 12:20:00,
2013-05-05 08:25:00,55.0,46.2,30.01,ESE,103,2.0,5.0,72,0.00,,---,0.00,VWS V14.00,2013-05-05 12:25:00,
2013-05-05 08:30:00,55.3,46.4,30.01,ENE,78,0.0,1.0,72,0.00,,---,0.00,VWS V14.00,2013-05-05 12:30:00,
2013-05-05 08:35:00,55.6,46.4,30.01,East,101,0.0,5.0,71,0.00,,---,0.00,VWS V14.00,2013-05-05 12:35:00,
2013-05-05 08:40:00,55.9,46.7,30.01,ENE,73,0.0,5.0,71,0.00,,---,0.00,VWS V14.00,2013-05-05 12:40:00,
2013-05-05 08:45:00,56.1,46.5,30.01,ENE,67,1.0,5.0,70,0.00,,---,0.00,VWS V14.00,2013-05-05 12:45:00,
2013-05-05 08:50:00,56.4,46.8,30.01,East,82,0.0,5.0,70,0.00,,---,0.00,VWS V14.00,2013-05-05 12:50:00,
2013-05-05 08:55:00,56.6,46.9,30.01,ENE,77,1.0,6.0,70,0.00,,---,0.00,VWS V14.00,2013-05-05 12:55:00,
2013-05-05 09:00:00,56.9,47.2,30.01,East,94,1.0,1.0,70,0.00,,---,0.00,VWS V14.00,2013-05-05 13:00:00,
2013-05-05 09:05:00,57.5,47.0,30.01,East,84,2.0,5.0,68,0.00,,---,0.00,VWS V14.00,2013-05-05 13:05:00,
2013-05-05 09:10:00,57.8,47.3,30.01,East,86,2.0,5.0,68,0.00,,---,0.00,VWS V14.00,2013-05-05 13:10:00,
2013-05-05 09:15:00,57.9,47.4,30.01,East,80,0.0,5.0,68,0.00,,---,0.00,VWS V14.00,2013-05-05 13:15:00,
2013-05-05 09:20:00,58.0,47.5,30.01,East,88,0.0,6.0,68,0.00,,---,0.00,VWS V14.00,2013-05-05 13:20:00,
2013-05-05 09:25:00,58.4,47.9,30.01,ESE,122,2.0,6.0,68,0.00,,---,0.00,VWS V14.00,2013-05-05 13:25:00,
2013-05-05 09:31:00,58.9,48.0,30.01,East,86,1.0,2.0,67,0.00,,---,0.00,VWS V14.00,2013-05-05 13:31:00,
2013-05-05 09:36:00,59.6,48.2,30.01,ESE,113,2.0,3.0,66,0.00,,---,0.00,VWS V14.00,2013-05-05 13:36:00,
2013-05-05 09:41:00,60.3,48.1,30.02,East,91,0.0,5.0,64,0.00,,---,0.00,VWS V14.00,2013-05-05 13:41:00,
2013-05-05 09:46:00,60.9,47.8,30.02,ESE,107,2.0,7.0,62,0.00,,---,0.00,VWS V14.00,2013-05-05 13:46:00,
2013-05-05 09:51:00,61.4,47.8,30.01,ENE,69,5.0,8.0,61,0.00,,---,0.00,VWS V14.00,2013-05-05 13:51:00,
2013-05-05 09:56:00,61.6,47.6,30.01,East,97,4.0,8.0,60,0.00,,---,0.00,VWS V14.00,2013-05-05 13:56:00,
2013-05-05 10:01:00,62.0,48.4,30.01,East,89,1.0,4.0,61,0.00,,---,0.00,VWS V14.00,2013-05-05 14:01:00,
2013-05-05 10:06:00,62.4,48.3,30.01,ENE,65,1.0,7.0,60,0.00,,---,0.00,VWS V14.00,2013-05-05 14:06:00,
2013-05-05 10:11:00,62.8,48.3,30.01,ESE,115,1.0,7.0,59,0.00,,---,0.00,VWS V14.00,2013-05-05 14:11:00,
2013-05-05 10:16:00,63.2,48.2,30.01,ENE,63,2.0,8.0,58,0.00,,---,0.00,VWS V14.00,2013-05-05 14:16:00,
2013-05-05 10:21:00,63.6,48.6,30.01,East,94,1.0,8.0,58,0.00,,---,0.00,VWS V14.00,2013-05-05 14:21:00,
2013-05-05 10:26:00,63.9,47.9,30.01,ESE,115,1.0,8.0,56,0.00,,---,0.00,VWS V14.00,2013-05-05 14:26:00,
2013-05-05 10:31:00,64.3,49.2,30.01,ENE,78,2.0,9.0,58,0.00,,---,0.00,VWS V14.00,2013-05-05 14:31:00,
2013-05-05 10:36:00,64.7,48.7,30.01,ENE,64,2.0,9.0,56,0.00,,---,0.00,VWS V14.00,2013-05-05 14:36:00,
2013-05-05 10:41:00,65.3,49.2,30.02,East,95,0.0,9.0,56,0.00,,---,0.00,VWS V14.00,2013-05-05 14:41:00,
2013-05-05 10:46:00,65.6,48.5,30.02,SE,132,6.0,10.0,54,0.00,,---,0.00,VWS V14.00,2013-05-05 14:46:00,
2013-05-05 10:51:00,65.8,49.2,30.02,East,98,6.0,10.0,55,0.00,,---,0.00,VWS V14.00,2013-05-05 14:51:00,
2013-05-05 10:56:00,65.9,48.8,30.01,SE,139,4.0,10.0,54,0.00,,---,0.00,VWS V14.00,2013-05-05 14:56:00,
2013-05-05 11:01:00,66.0,48.9,30.01,ESE,118,5.0,5.0,54,0.00,,---,0.00,VWS V14.00,2013-05-05 15:01:00,
2013-05-05 11:06:00,66.4,49.8,30.01,ESE,123,0.0,9.0,55,0.00,,---,0.00,VWS V14.00,2013-05-05 15:06:00,
2013-05-05 11:11:00,66.9,49.2,30.01,ESE,115,0.0,9.0,53,0.00,,---,0.00,VWS V14.00,2013-05-05 15:11:00,
2013-05-05 11:16:00,67.1,47.9,30.01,ESE,102,2.0,9.0,50,0.00,,---,0.00,VWS V14.00,2013-05-05 15:16:00,
2013-05-05 11:22:00,67.3,48.6,30.01,ENE,71,4.0,9.0,51,0.00,,---,0.00,VWS V14.00,2013-05-05 15:22:00,
2013-05-05 11:27:00,67.7,48.9,30.01,ESE,119,1.0,9.0,51,0.00,,---,0.00,VWS V14.00,2013-05-05 15:27:00,
2013-05-05 11:32:00,68.3,49.0,30.00,ESE,115,1.0,5.0,50,0.00,,---,0.00,VWS V14.00,2013-05-05 15:32:00,
2013-05-05 11:37:00,68.6,48.7,30.00,ESE,119,2.0,8.0,49,0.00,,---,0.00,VWS V14.00,2013-05-05 15:37:00,
2013-05-05 11:42:00,68.8,48.9,30.00,ENE,65,1.0,8.0,49,0.00,,---,0.00,VWS V14.00,2013-05-05 15:42:00,
2013-05-05 11:47:00,69.1,49.7,30.00,East,90,4.0,8.0,50,0.00,,---,0.00,VWS V14.00,2013-05-05 15:47:00,
2013-05-05 11:52:00,69.4,48.9,30.00,ESE,121,2.0,8.0,48,0.00,,---,0.00,VWS V14.00,2013-05-05 15:52:00,
2013-05-05 11:57:00,69.4,47.7,30.00,SE,135,1.0,8.0,46,0.00,,---,0.00,VWS V14.00,2013-05-05 15:57:00,
2013-05-05 12:02:00,69.3,47.7,30.00,ESE,117,1.0,8.0,46,0.00,,---,0.00,VWS V14.00,2013-05-05 16:02:00,
2013-05-05 12:07:00,69.3,48.2,30.00,East,84,5.0,8.0,47,0.00,,---,0.00,VWS V14.00,2013-05-05 16:07:00,
2013-05-05 12:12:00,69.6,48.5,29.99,SE,131,4.0,8.0,47,0.00,,---,0.00,VWS V14.00,2013-05-05 16:12:00,
2013-05-05 12:17:00,69.9,48.2,30.00,East,95,1.0,8.0,46,0.00,,---,0.00,VWS V14.00,2013-05-05 16:17:00,
2013-05-05 12:22:00,69.9,47.6,30.00,ESE,118,4.0,8.0,45,0.00,,---,0.00,VWS V14.00,2013-05-05 16:22:00,
2013-05-05 12:27:00,69.5,46.7,29.99,East,85,2.0,10.0,44,0.00,,---,0.00,VWS V14.00,2013-05-05 16:27:00,
2013-05-05 12:32:00,69.1,47.5,29.99,ESE,119,6.0,6.0,46,0.00,,---,0.00,VWS V14.00,2013-05-05 16:32:00,
2013-05-05 12:37:00,68.7,47.7,29.99,East,85,5.0,6.0,47,0.00,,---,0.00,VWS V14.00,2013-05-05 16:37:00,
2013-05-05 12:42:00,68.7,48.2,29.99,East,98,1.0,7.0,48,0.00,,---,0.00,VWS V14.00,2013-05-05 16:42:00,
2013-05-05 12:47:00,68.9,48.4,29.99,East,94,1.0,7.0,48,0.00,,---,0.00,VWS V14.00,2013-05-05 16:47:00,
2013-05-05 12:52:00,69.2,47.6,29.99,NE,52,2.0,8.0,46,0.00,,---,0.00,VWS V14.00,2013-05-05 16:52:00,
2013-05-05 12:57:00,69.0,47.4,29.99,ENE,74,4.0,8.0,46,0.00,,---,0.00,VWS V14.00,2013-05-05 16:57:00,
2013-05-05 13:02:00,69.0,47.4,29.99,ESE,118,0.0,9.0,46,0.00,,---,0.00,VWS V14.00,2013-05-05 17:02:00,
2013-05-05 13:07:00,68.8,47.2,29.99,East,83,2.0,9.0,46,0.00,,---,0.00,VWS V14.00,2013-05-05 17:07:00,
2013-05-05 13:12:00,69.0,48.5,29.98,ENE,63,3.0,9.0,48,0.00,,---,0.00,VWS V14.00,2013-05-05 17:12:00,
2013-05-05 13:17:00,69.7,49.2,29.98,North,5,1.0,9.0,48,0.00,,---,0.00,VWS V14.00,2013-05-05 17:17:00,
2013-05-05 13:22:00,70.5,47.6,29.98,ENE,61,3.0,11.0,44,0.00,,---,0.00,VWS V14.00,2013-05-05 17:22:00,
2013-05-05 13:27:00,70.8,47.8,29.98,ENE,78,4.0,11.0,44,0.00,,---,0.00,VWS V14.00,2013-05-05 17:27:00,
2013-05-05 13:33:00,70.9,48.5,29.98,East,90,6.0,6.0,45,0.00,,---,0.00,VWS V14.00,2013-05-05 17:33:00,
2013-05-05 13:38:00,71.3,48.9,29.98,ESE,113,5.0,6.0,45,0.00,,---,0.00,VWS V14.00,2013-05-05 17:38:00,
2013-05-05 13:43:00,71.7,48.7,29.98,SE,126,4.0,7.0,44,0.00,,---,0.00,VWS V14.00,2013-05-05 17:43:00,
2013-05-05 13:48:00,72.0,48.3,29.97,East,99,4.0,7.0,43,0.00,,---,0.00,VWS V14.00,2013-05-05 17:48:00,
2013-05-05 13:53:00,72.2,47.9,29.97,NNE,18,3.0,8.0,42,0.00,,---,0.00,VWS V14.00,2013-05-05 17:53:00,
2013-05-05 13:58:00,72.0,48.3,29.97,NE,51,0.0,8.0,43,0.00,,---,0.00,VWS V14.00,2013-05-05 17:58:00,
2013-05-05 14:03:00,71.8,47.5,29.97,East,86,0.0,6.0,42,0.00,,---,0.00,VWS V14.00,2013-05-05 18:03:00,
2013-05-05 14:08:00,71.7,48.0,29.97,East,80,4.0,7.0,43,0.00,,---,0.00,VWS V14.00,2013-05-05 18:08:00,
2013-05-05 14:13:00,71.3,47.7,29.97,NE,43,0.0,8.0,43,0.00,,---,0.00,VWS V14.00,2013-05-05 18:13:00,
2013-05-05 14:18:00,71.3,47.7,29.98,ESE,117,1.0,8.0,43,0.00,,---,0.00,VWS V14.00,2013-05-05 18:18:00,
2013-05-05 14:23:00,71.3,47.0,29.98,East,89,2.0,8.0,42,0.00,,---,0.00,VWS V14.00,2013-05-05 18:23:00,
2013-05-05 14:28:00,71.1,47.5,29.97,East,79,1.0,8.0,43,0.00,,---,0.00,VWS V14.00,2013-05-05 18:28:00,
2013-05-05 14:33:00,71.3,48.3,29.98,ESE,111,4.0,5.0,44,0.00,,---,0.00,VWS V14.00,2013-05-05 18:33:00,
2013-05-05 14:38:00,71.6,47.3,29.97,ENE,70,5.0,10.0,42,0.00,,---,0.00,VWS V14.00,2013-05-05 18:38:00,
2013-05-05 14:43:00,71.3,47.7,29.97,East,100,5.0,10.0,43,0.00,,---,0.00,VWS V14.00,2013-05-05 18:43:00,
2013-05-05 14:48:00,71.3,48.3,29.97,East,82,6.0,10.0,44,0.00,,---,0.00,VWS V14.00,2013-05-05 18:48:00,
2013-05-05 14:53:00,71.2,47.0,29.97,NE,40,4.0,10.0,42,0.00,,---,0.00,VWS V14.00,2013-05-05 18:53:00,
2013-05-05 14:58:00,71.2,47.6,29.97,East,93,7.0,10.0,43,0.00,,---,0.00,VWS V14.00,2013-05-05 18:58:00,
2013-05-05 15:03:00,71.2,48.2,29.97,ESE,122,5.0,6.0,44,0.00,,---,0.00,VWS V14.00,2013-05-05 19:03:00,
2013-05-05 15:08:00,71.5,46.6,29.97,ESE,103,1.0,10.0,41,0.00,,---,0.00,VWS V14.00,2013-05-05 19:08:00,
2013-05-05 15:13:00,71.8,47.5,29.97,East,81,2.0,10.0,42,0.00,,---,0.00,VWS V14.00,2013-05-05 19:13:00,
2013-05-05 15:18:00,71.9,47.6,29.97,SE,134,2.0,10.0,42,0.00,,---,0.00,VWS V14.00,2013-05-05 19:18:00,
2013-05-05 15:23:00,71.8,46.9,29.96,East,86,4.0,10.0,41,0.00,,---,0.00,VWS V14.00,2013-05-05 19:23:00,
2013-05-05 15:28:00,71.8,46.9,29.97,East,84,4.0,10.0,41,0.00,,---,0.00,VWS V14.00,2013-05-05 19:28:00,
2013-05-05 15:34:00,71.7,47.4,29.97,ESE,111,0.0,9.0,42,0.00,,---,0.00,VWS V14.00,2013-05-05 19:34:00,
2013-05-05 15:39:00,71.8,47.5,29.96,ESE,103,2.0,9.0,42,0.00,,---,0.00,VWS V14.00,2013-05-05 19:39:00,
2013-05-05 15:44:00,71.9,48.2,29.96,East,94,0.0,9.0,43,0.00,,---,0.00,VWS V14.00,2013-05-05 19:44:00,
2013-05-05 15:49:00,72.1,48.4,29.96,SE,124,0.0,9.0,43,0.00,,---,0.00,VWS V14.00,2013-05-05 19:49:00,
2013-05-05 15:54:00,72.3,48.0,29.96,ESE,105,2.0,9.0,42,0.00,,---,0.00,VWS V14.00,2013-05-05 19:54:00,
2013-05-05 15:59:00,72.4,48.0,29.96,ESE,115,4.0,9.0,42,0.00,,---,0.00,VWS V14.00,2013-05-05 19:59:00,
2013-05-05 16:04:00,72.4,48.0,29.96,ESE,119,4.0,7.0,42,0.00,,---,0.00,VWS V14.00,2013-05-05 20:04:00,
2013-05-05 16:09:00,72.4,46.7,29.96,ESE,103,2.0,8.0,40,0.00,,---,0.00,VWS V14.00,2013-05-05 20:09:00,
2013-05-05 16:14:00,72.4,46.7,29.96,ENE,74,4.0,8.0,40,0.00,,---,0.00,VWS V14.00,2013-05-05 20:14:00,
2013-05-05 16:19:00,72.3,46.0,29.96,ENE,67,1.0,8.0,39,0.00,,---,0.00,VWS V14.00,2013-05-05 20:19:00,
2013-05-05 16:24:00,72.4,46.7,29.96,SE,124,4.0,8.0,40,0.00,,---,0.00,VWS V14.00,2013-05-05 20:24:00,
2013-05-05 16:29:00,72.7,46.3,29.95,ESE,117,0.0,8.0,39,0.00,,---,0.00,VWS V14.00,2013-05-05 20:29:00,
2013-05-05 16:34:00,72.9,46.5,29.95,East,100,2.0,7.0,39,0.00,,---,0.00,VWS V14.00,2013-05-05 20:34:00,
2013-05-05 16:39:00,73.3,46.2,29.95,ENE,66,4.0,7.0,38,0.00,,---,0.00,VWS V14.00,2013-05-05 20:39:00,
2013-05-05 16:44:00,73.5,44.2,29.95,ENE,71,1.0,8.0,35,0.00,,---,0.00,VWS V14.00,2013-05-05 20:44:00,
2013-05-05 16:49:00,73.3,44.8,29.95,ENE,61,8.0,11.0,36,0.00,,---,0.00,VWS V14.00,2013-05-05 20:49:00,
2013-05-05 16:54:00,73.0,45.2,29.95,East,101,5.0,11.0,37,0.00,,---,0.00,VWS V14.00,2013-05-05 20:54:00,
2013-05-05 16:59:00,73.1,44.6,29.95,SE,132,4.0,12.0,36,0.00,,---,0.00,VWS V14.00,2013-05-05 20:59:00,
2013-05-05 17:04:00,73.3,44.0,29.95,SE,128,2.0,5.0,35,0.00,,---,0.00,VWS V14.00,2013-05-05 21:04:00,
2013-05-05 17:09:00,73.3,44.8,29.95,East,88,2.0,9.0,36,0.00,,---,0.00,VWS V14.00,2013-05-05 21:09:00,
2013-05-05 17:14:00,73.3,44.0,29.95,SE,142,1.0,9.0,35,0.00,,---,0.00,VWS V14.00,2013-05-05 21:14:00,
2013-05-05 17:19:00,73.1,44.6,29.95,ENE,76,3.0,9.0,36,0.00,,---,0.00,VWS V14.00,2013-05-05 21:19:00,
2013-05-05 17:24:00,72.8,44.3,29.95,ESE,103,1.0,10.0,36,0.00,,---,0.00,VWS V14.00,2013-05-05 21:24:00,
2013-05-05 17:29:00,72.5,44.1,29.95,SE,124,0.0,10.0,36,0.00,,---,0.00,VWS V14.00,2013-05-05 21:29:00,
2013-05-05 17:34:00,72.4,45.4,29.95,East,85,1.0,2.0,38,0.00,,---,0.00,VWS V14.00,2013-05-05 21:34:00,
2013-05-05 17:40:00,72.3,43.9,29.95,ENE,74,4.0,9.0,36,0.00,,---,0.00,VWS V14.00,2013-05-05 21:40:00,
2013-05-05 17:45:00,72.1,44.4,29.95,ESE,123,0.0,9.0,37,0.00,,---,0.00,VWS V14.00,2013-05-05 21:45:00,
2013-05-05 17:50:00,71.9,44.2,29.95,East,101,4.0,9.0,37,0.00,,---,0.00,VWS V14.00,2013-05-05 21:50:00,
2013-05-05 17:55:00,71.7,44.1,29.95,East,81,2.0,9.0,37,0.00,,---,0.00,VWS V14.00,2013-05-05 21:55:00,
2013-05-05 18:00:00,71.4,46.5,29.95,NE,39,2.0,9.0,41,0.00,,---,0.00,VWS V14.00,2013-05-05 22:00:00,
2013-05-05 18:05:00,71.1,46.2,29.95,East,84,2.0,7.0,41,0.00,,---,0.00,VWS V14.00,2013-05-05 22:05:00,
2013-05-05 18:10:00,70.8,46.0,29.95,ESE,109,8.0,8.0,41,0.00,,---,0.00,VWS V14.00,2013-05-05 22:10:00,
2013-05-05 18:15:00,70.5,46.3,29.95,ENE,65,0.0,8.0,42,0.00,,---,0.00,VWS V14.00,2013-05-05 22:15:00,
2013-05-05 18:20:00,70.2,46.1,29.95,ENE,57,3.0,8.0,42,0.00,,---,0.00,VWS V14.00,2013-05-05 22:20:00,
2013-05-05 18:25:00,70.0,45.9,29.95,East,84,2.0,8.0,42,0.00,,---,0.00,VWS V14.00,2013-05-05 22:25:00,
2013-05-05 18:30:00,69.8,45.7,29.95,ENE,67,7.0,7.0,42,0.00,,---,0.00,VWS V14.00,2013-05-05 22:30:00,
2013-05-05 18:35:00,69.9,45.8,29.95,ENE,74,2.0,7.0,42,0.00,,---,0.00,VWS V14.00,2013-05-05 22:35:00,
2013-05-05 18:40:00,70.0,45.2,29.95,East,94,0.0,7.0,41,0.00,,---,0.00,VWS V14.00,2013-05-05 22:40:00,
2013-05-05 18:45:00,69.9,44.5,29.95,SE,124,4.0,7.0,40,0.00,,---,0.00,VWS V14.00,2013-05-05 22:45:00,
2013-05-05 18:50:00,69.7,45.6,29.95,ESE,111,1.0,7.0,42,0.00,,---,0.00,VWS V14.00,2013-05-05 22:50:00,
2013-05-05 18:55:00,69.6,44.9,29.95,ENE,64,1.0,7.0,41,0.00,,---,0.00,VWS V14.00,2013-05-05 22:55:00,
2013-05-05 19:00:00,69.4,44.7,29.96,ENE,69,2.0,2.0,41,0.00,,---,0.00,VWS V14.00,2013-05-05 23:00:00,
2013-05-05 19:05:00,69.0,44.3,29.96,ENE,76,0.0,7.0,41,0.00,,---,0.00,VWS V14.00,2013-05-05 23:05:00,
2013-05-05 19:10:00,68.7,44.1,29.96,East,83,1.0,7.0,41,0.00,,---,0.00,VWS V14.00,2013-05-05 23:10:00,
2013-05-05 19:15:00,68.4,44.4,29.96,East,84,1.0,7.0,42,0.00,,---,0.00,VWS V14.00,2013-05-05 23:15:00,
2013-05-05 19:20:00,68.1,44.2,29.96,East,93,1.0,7.0,42,0.00,,---,0.00,VWS V14.00,2013-05-05 23:20:00,
2013-05-05 19:25:00,67.9,44.0,29.96,ENE,76,0.0,7.0,42,0.00,,---,0.00,VWS V14.00,2013-05-05 23:25:00,
2013-05-05 19:30:00,67.8,44.5,29.96,East,90,0.0,1.0,43,0.00,,---,0.00,VWS V14.00,2013-05-05 23:30:00,
2013-05-05 19:35:00,67.7,43.8,29.96,ENE,71,0.0,6.0,42,0.00,,---,0.00,VWS V14.00,2013-05-05 23:35:00,
2013-05-05 19:40:00,67.6,43.7,29.96,East,85,1.0,6.0,42,0.00,,---,0.00,VWS V14.00,2013-05-05 23:40:00,
2013-05-05 19:46:00,67.4,43.5,29.96,ENE,76,2.0,6.0,42,0.00,,---,0.00,VWS V14.00,2013-05-05 23:46:00,
2013-05-05 19:51:00,67.2,43.4,29.96,ENE,70,2.0,6.0,42,0.00,,---,0.00,VWS V14.00,2013-05-05 23:51:00,
2013-05-05 19:56:00,67.0,42.5,29.96,ENE,68,0.0,6.0,41,0.00,,---,0.00,VWS V14.00,2013-05-05 23:56:00,
2013-05-05 20:01:00,66.9,42.5,29.96,East,84,0.0,1.0,41,0.00,,---,0.00,VWS V14.00,2013-05-06 00:01:00,
2013-05-05 20:06:00,66.7,42.3,29.97,East,89,1.0,4.0,41,0.00,,---,0.00,VWS V14.00,2013-05-06 00:06:00,
2013-05-05 20:11:00,66.6,43.4,29.96,East,80,0.0,4.0,43,0.00,,---,0.00,VWS V14.00,2013-05-06 00:11:00,
2013-05-05 20:16:00,66.3,42.5,29.96,NE,55,0.0,4.0,42,0.00,,---,0.00,VWS V14.00,2013-05-06 00:16:00,
2013-05-05 20:21:00,66.2,43.7,29.96,NE,42,4.0,4.0,44,0.00,,---,0.00,VWS V14.00,2013-05-06 00:21:00,
2013-05-05 20:26:00,66.1,43.0,29.96,NE,48,0.0,7.0,43,0.00,,---,0.00,VWS V14.00,2013-05-06 00:26:00,
2013-05-05 20:31:00,65.9,42.8,29.96,NE,51,1.0,2.0,43,0.00,,---,0.00,VWS V14.00,2013-05-06 00:31:00,
2013-05-05 20:36:00,65.7,43.2,29.96,ENE,71,0.0,3.0,44,0.00,,---,0.00,VWS V14.00,2013-05-06 00:36:00,
2013-05-05 20:41:00,65.5,43.0,29.96,ENE,69,0.0,3.0,44,0.00,,---,0.00,VWS V14.00,2013-05-06 00:41:00,
2013-05-05 20:46:00,65.4,43.5,29.96,East,88,0.0,3.0,45,0.00,,---,0.00,VWS V14.00,2013-05-06 00:46:00,
2013-05-05 20:51:00,65.2,43.3,29.97,East,88,0.0,3.0,45,0.00,,---,0.00,VWS V14.00,2013-05-06 00:51:00,
2013-05-05 20:56:00,65.0,43.2,29.97,East,87,0.0,3.0,45,0.00,,---,0.00,VWS V14.00,2013-05-06 00:56:00,
2013-05-05 21:01:00,64.9,43.1,29.97,East,87,0.0,1.0,45,0.00,,---,0.00,VWS V14.00,2013-05-06 01:01:00,
2013-05-05 21:06:00,64.8,43.0,29.97,East,87,0.0,1.0,45,0.00,,---,0.00,VWS V14.00,2013-05-06 01:06:00,
2013-05-05 21:11:00,64.6,42.2,29.97,East,97,0.0,2.0,44,0.00,,---,0.00,VWS V14.00,2013-05-06 01:11:00,
2013-05-05 21:16:00,64.4,42.6,29.97,ESE,113,0.0,2.0,45,0.00,,---,0.00,VWS V14.00,2013-05-06 01:16:00,
2013-05-05 21:21:00,64.3,41.9,29.97,East,100,0.0,4.0,44,0.00,,---,0.00,VWS V14.00,2013-05-06 01:21:00,
2013-05-05 21:26:00,64.1,42.3,29.98,East,100,0.0,4.0,45,0.00,,---,0.00,VWS V14.00,2013-05-06 01:26:00,
2013-05-05 21:31:00,64.0,42.8,29.98,East,100,0.0,1.0,46,0.00,,---,0.00,VWS V14.00,2013-05-06 01:31:00,
2013-05-05 21:36:00,63.9,42.2,29.98,East,98,0.0,6.0,45,0.00,,---,0.00,VWS V14.00,2013-05-06 01:36:00,
2013-05-05 21:42:00,63.7,42.5,29.98,East,95,0.0,6.0,46,0.00,,---,0.00,VWS V14.00,2013-05-06 01:42:00,
2013-05-05 21:47:00,63.5,41.8,29.97,East,80,0.0,6.0,45,0.00,,---,0.00,VWS V14.00,2013-05-06 01:47:00,
2013-05-05 21:52:00,63.4,41.7,29.98,ENE,74,0.0,6.0,45,0.00,,---,0.00,VWS V14.00,2013-05-06 01:52:00,
2013-05-05 21:57:00,63.2,41.5,29.98,NE,53,1.0,6.0,45,0.00,,---,0.00,VWS V14.00,2013-05-06 01:57:00,
2013-05-05 22:02:00,63.1,41.4,29.98,East,92,0.0,5.0,45,0.00,,---,0.00,VWS V14.00,2013-05-06 02:02:00,
2013-05-05 22:07:00,62.9,41.3,29.98,East,86,2.0,5.0,45,0.00,,---,0.00,VWS V14.00,2013-05-06 02:07:00,
2013-05-05 22:12:00,62.8,41.7,29.98,East,82,0.0,5.0,46,0.00,,---,0.00,VWS V14.00,2013-05-06 02:12:00,
2013-05-05 22:17:00,62.7,42.2,29.98,East,82,2.0,5.0,47,0.00,,---,0.00,VWS V14.00,2013-05-06 02:17:00,
2013-05-05 22:22:00,62.5,41.5,29.98,ENE,72,0.0,5.0,46,0.00,,---,0.00,VWS V14.00,2013-05-06 02:22:00,
2013-05-05 22:27:00,62.3,41.8,29.98,ENE,71,0.0,5.0,47,0.00,,---,0.00,VWS V14.00,2013-05-06 02:27:00,
2013-05-05 22:32:00,62.2,41.7,29.98,ENE,63,1.0,1.0,47,0.00,,---,0.00,VWS V14.00,2013-05-06 02:32:00,
2013-05-05 22:37:00,62.1,41.7,29.98,ENE,73,0.0,3.0,47,0.00,,---,0.00,VWS V14.00,2013-05-06 02:37:00,
2013-05-05 22:42:00,61.9,42.0,29.98,North,11,0.0,4.0,48,0.00,,---,0.00,VWS V14.00,2013-05-06 02:42:00,
2013-05-05 22:47:00,61.8,41.9,29.98,ENE,78,0.0,4.0,48,0.00,,---,0.00,VWS V14.00,2013-05-06 02:47:00,
2013-05-05 22:52:00,61.6,42.3,29.98,East,91,0.0,4.0,49,0.00,,---,0.00,VWS V14.00,2013-05-06 02:52:00,
2013-05-05 22:57:00,61.4,42.1,29.98,ENE,73,0.0,4.0,49,0.00,,---,0.00,VWS V14.00,2013-05-06 02:57:00,
2013-05-05 23:02:00,61.3,42.0,29.98,NE,56,0.0,1.0,49,0.00,,---,0.00,VWS V14.00,2013-05-06 03:02:00,
2013-05-05 23:07:00,61.2,42.4,29.97,ENE,62,0.0,2.0,50,0.00,,---,0.00,VWS V14.00,2013-05-06 03:07:00,
2013-05-05 23:12:00,61.0,42.2,29.97,East,84,0.0,4.0,50,0.00,,---,0.00,VWS V14.00,2013-05-06 03:12:00,
2013-05-05 23:17:00,60.9,42.2,29.97,ENE,59,0.0,4.0,50,0.00,,---,0.00,VWS V14.00,2013-05-06 03:17:00,
2013-05-05 23:22:00,60.7,42.5,29.97,ESE,107,0.0,4.0,51,0.00,,---,0.00,VWS V14.00,2013-05-06 03:22:00,
2013-05-05 23:27:00,60.5,41.8,29.97,ENE,63,0.0,5.0,50,0.00,,---,0.00,VWS V14.00,2013-05-06 03:27:00,
2013-05-05 23:33:00,60.5,42.3,29.97,ENE,77,0.0,1.0,51,0.00,,---,0.00,VWS V14.00,2013-05-06 03:33:00,
2013-05-05 23:38:00,60.4,42.7,29.97,NE,50,0.0,2.0,52,0.00,,---,0.00,VWS V14.00,2013-05-06 03:38:00,
2013-05-05 23:43:00,60.3,42.6,29.97,ESE,104,1.0,2.0,52,0.00,,---,0.00,VWS V14.00,2013-05-06 03:43:00,
2013-05-05 23:48:00,60.2,42.5,29.96,East,84,0.0,2.0,52,0.00,,---,0.00,VWS V14.00,2013-05-06 03:48:00,
2013-05-05 23:53:00,60.1,42.4,29.97,ENE,78,0.0,3.0,52,0.00,,---,0.00,VWS V14.00,2013-05-06 03:53:00,
2013-05-05 23:58:00,60.0,42.3,29.96,ENE,57,0.0,4.0,52,0.00,,---,0.00,VWS V14.00,2013-05-06 03:58:00,